MONITOR-E/SL-19

Satellite information

Favourite Embed

Satellite Type and Status

PAYLOADIN ORBIT

Key statistics

Satellite MONITOR-E/SL-19 at a glance.

Uptime

8098

Days in orbit

Revolutions

≈ 14.4

Per day

Orbit

SSO

Sun Synchronous Orbit

Inclination

98.6

Latest

Satellite identification and parameters

Extended collection of information and parameters for MONITOR-E/SL-19.

Object identification

Identified? True

Debris? False

Object name: MONITOR-E/SL-19

International designator: 2003-031A

Object number (NORAD): 27840

Object ID (CCSDS): 27840

Country: COMMONWEALTH OF INDEPENDENT STATES (CIS)

Current information (Y/N): Y

RCS size: LARGE

Orbital parameters

Period: 100.021 minutes

Inclination: 98.591 deg

SMA: 7137.615 km

Apoapsis: 829.392 km

Periapsis: 689.568 km

RAAN: 215.1189 deg

Eccentricy: 0.00979489

Argument of periapsis: 130.5054 deg

Mean anomaly: 230.4719 deg

Mean motion: 14.39703667 rev/day

Mean motion (dot): 0.00000132 rev/day2

B* drag term: 0.000053924644 1/REarth

Two-line elements (TLE)

Creation date: Aug. 30, 2025, 3:38 a.m.

Reference frame: TEME

Reference center: EARTH

Epoch: Aug. 29, 2025, 9:22 p.m. UTC

TLE line 0: 0 MONITOR-E/SL-19

TLE line 1: 1 27840U 03031A 25241.89039761 .00000132 00000-0 53925-4 0 9999

TLE line 2: 2 27840 98.5910 215.1189 0097949 130.5054 230.4719 14.39703667164089

Live tracking on map

Real-time ground track for satellite MONITOR-E/SL-19.

In-orbit conjunctions

A list of the most updated potential collisions computed for object MONITOR-E/SL-19.

Target Orbit TCA Probability of collision Miss distance Type
METEOR 2-7 DEB LEO 2025-08-26 18:56:34 0.0009943243 493.0 (m) DEBRIS
NOAA 16 DEB SSO 2025-07-28 12:28:17 0.0001375561 631.0 (m) DEBRIS
THORAD AGENA D DEB SSO 2025-03-01 23:59:38 0.0001514995 140.0 (m) DEBRIS
COSMOS 2251 DEB LEO 2024-12-10 12:00:13 0.0002816259 217.0 (m) DEBRIS
SL-16 DEB LEO 2024-10-20 12:35:44 0.0003216103 188.0 (m) DEBRIS

Associated space launch

MIMOSA (Micro Measurements Of Satellite Acceleration) is a microsatellite to measure atmospheric drag.

MONITOR-E/SL-19 was lifted into orbit during the mission ‘Rokot / Briz-KM | Mimosa’, on board a Rokot/Briz-KM space rocket.

The launch took place on June 30, 2003, 2:15 p.m. from 133/3 (133L).

For more information about the launch, click the button.

Launch to space Rokot / Briz-KM | Mimosa
Rokot / Briz-KM | Mimosa

Agency: N/A

Status: Launch Successful

Launch date: June 30, 2003, 2:15 p.m. UTC

Rocket: Rokot/Briz-KM

Launch pad: 133/3 (133L)

Location: Plesetsk Cosmodrome, Russian Federation

...

Latest news about this satellite

There are no fresh news available about this satellite. Check back as we update our databases every day.


Newsletter sign-up

Weekly statistics, charts and insights to help you stay on top of the space industry.